This is the latest recevied weather packets stored in our database for station/object KA3ZXO. If no packets are shown the sender has not sent any weather packets the latest 10 day(s).
| Time | Temp. | Humidity | Pressure | Rain* | Wind** | Luminosity | Snow |
|---|---|---|---|---|---|---|---|
| 1777846399 | 17.78° C | 31% | 1014.6 hPa | 0 mm | - | 130 W/m² | - |
| 1777845797 | 18.33° C | 31% | 1014.7 hPa | 0 mm | - | 154 W/m² | - |
| 1777845197 | 17.78° C | 32% | 1014.8 hPa | 0 mm | - | 182 W/m² | - |
| 1777844592 | 17.78° C | 31% | 1014.8 hPa | 0 mm | - | 211 W/m² | - |
| 1777843987 | 17.78° C | 31% | 1014.5 hPa | 0 mm | - | 241 W/m² | - |
| 1777843381 | 17.78° C | 30% | 1014.6 hPa | 0 mm | - | 270 W/m² | - |
| 1777842781 | 17.78° C | 30% | 1014.4 hPa | 0 mm | - | 299 W/m² | - |
| 1777842179 | 18.33° C | 30% | 1014.5 hPa | 0 mm | - | 326 W/m² | - |
| 1777841576 | 17.22° C | 31% | 1014.4 hPa | 0 mm | - | 358 W/m² | - |
| 1777840977 | 17.22° C | 31% | 1014.4 hPa | 0 mm | - | 382 W/m² | - |
| 1777840371 | 17.22° C | 30% | 1014.6 hPa | 0 mm | - | 411 W/m² | - |
| 1777839766 | 17.22° C | 32% | 1014.8 hPa | 0 mm | - | 437 W/m² | - |
| 1777839167 | 17.22° C | 31% | 1015 hPa | 0 mm | - | 462 W/m² | - |
| 1777838565 | 17.22° C | 32% | 1015.1 hPa | 0 mm | - | 490 W/m² | - |
| 1777837965 | 17.22° C | 30% | 1015.2 hPa | 0 mm | - | 513 W/m² | - |
| 1777837364 | 16.67° C | 34% | 1015.3 hPa | 0 mm | - | 536 W/m² | - |
| 1777836763 | 16.67° C | 33% | 1015.4 hPa | 0 mm | - | 559 W/m² | - |
| 1777836159 | 16.11° C | 32% | 1015.6 hPa | 0 mm | - | 576 W/m² | - |
| 1777835554 | 16.67° C | 31% | 1015.8 hPa | 0 mm | - | 598 W/m² | - |
| 1777834953 | 16.67° C | 34% | 1015.7 hPa | 0 mm | - | 605 W/m² | - |
| 1777834352 | 16.67° C | 33% | 1015.8 hPa | 0 mm | - | 630 W/m² | - |
| 1777833749 | 16.11° C | 32% | 1015.9 hPa | 0 mm | - | 644 W/m² | - |
| 1777833149 | 15.56° C | 32% | 1016 hPa | 0 mm | - | 659 W/m² | - |
| 1777832545 | 15° C | 34% | 1015.9 hPa | 0 mm | - | 671 W/m² | - |
| 1777831944 | 15° C | 34% | 1016.1 hPa | 0 mm | - | 537 W/m² | - |
* Rain latest hour (hover to see other rain measurements)
** Current wind speed in m/s (hover to see current wind gust speed)